Weather Roundup
Issued by NWS Chicago, IL

Home | Current Version | Previous Version | Graphics & Text | Print | Product List | Glossary On
Versions: 1 2 3 4 5 6 7 8 9 10 11 12 13 14 15 16 17 18 19 20 21 22 23 24 25 26 27 28 29 30 31 32 33 34 35 36 37 38 39 40 41 42 43 44 45 46 47 48 49 50
000
NZUS59 KLOT 060912
HRRLOT

CHICAGO AREA WEATHER ROUNDUP
NATIONAL WEATHER SERVICE CHICAGO/ROMEOVILLE IL
400 AM CDT WED MAY 06 2015

NOTE: "FAIR" INDICATES FEW OR NO CLOUDS BELOW 12,000 FEET WITH NO
SIGNIFICANT WEATHER AND/OR OBSTRUCTIONS TO VISIBILITY.

* THESE STATIONS ARE NOT UNDER NWS QUALITY CONTROL. THEY ALSO MAY NOT
  REPORT WEATHER SUCH AS PRECIPITATION OR FOG.

ILZ005-006-012>014-019>023-061000-
NORTHEAST ILLINOIS

CITY           SKY/WX    TMP DP  RH WIND       PRES   REMARKS
OHARE          FOG       47  46  97 NE6       30.18S VSB 3/4
MIDWAY         FOG       51  49  92 NE5       30.18S VSB 1/2
AURORA         FOG       51  49  92 E8        30.17F VSB 1/2
LANSING*       DRZL/FOG  49  47  93 N5        30.18S VSB 1/2
JOLIET*        FOG       54  54  99 NE5       30.17S VSB 3/4
WAUKEGAN       CLOUDY    45  44  97 E3        30.19F
DUPAGE AIRPORT FOG       49  48  97 NE7       30.17F VSB 1/4
WHEELING       CLOUDY    46  45  96 NE3       30.20F FOG
KANKAKEE*      FOG       61  61  99 E6        30.16S VSB 1
MORRIS*        FOG       53  53  98 NE3       30.13F VSB 1/2
LEWIS AIRPORT* DRZL/FOG  51  51 100 E6        30.17S VSB 1/4
NORTHERLY IS     N/A     46  45  96 N3          N/A
$$

WIZ051-052-058>065-066-070>072-061000-
SOUTHEAST WISCONSIN

CITY           SKY/WX    TMP DP  RH WIND       PRES   REMARKS
MILWAUKEE      CLOUDY    46  38  73 CALM      30.21S
KENOSHA*       CLOUDY    48  46  93 E6        30.19F
RACINE*        CLOUDY    47  44  90 CALM      30.21F FOG
BURLINGTON     CLOUDY    46  44  94 E6        30.19F
WAUKESHA       CLOUDY    45  37  76 CALM      30.21R
WEST BEND      MOCLDY    45  39  81 CALM      30.20S
$$

INZ001>003-010>013-019-020-061000-
NORTHWEST INDIANA

CITY           SKY/WX    TMP DP  RH WIND       PRES   REMARKS
GARY*          FOG       49  47  90 CALM      30.19S VSB 1/4
MICHIGAN CITY* NOT AVBL
RENSSELAER*    NOT AVBL
VALPARAISO     CLOUDY    57  56  96 E5        30.18S FOG
$$

LMZ740>746-061000-
SOUTHERN LAKE MICHIGAN

STATION/POSITION TIME  SKY/WX   TEMP WIND        PRES    VSBY
                                AIR  DIR/SP/G
                 (UTC)          (F)  (DEG/KT/KT) (MB)    (MI)
HARRISON CRIB    0800            44  350/  7/  8   N/A
BURNHAM HARBOR   0900            46  360/  5/  7   N/A
CALUMET HARBOR   0800            46  340/  5/  8   N/A
BURNS HARBOR     0800            54   80/  2/  3 1022.4S
MICHIGAN CITY    0800            56   60/  3/  5   N/A
$$

ABBREVIATIONS USED IN REMARKS
   TC - TEMPERATURE IN CELSIUS
  WCI - WIND CHILL INDEX
   HX - HEAT INDEX
  VSB - VISIBILITY
$$


USA.gov is the U.S. government's official web portal to all federal, state and local government web resources and services.